sat.trackr.live / text

‹ back to catalog

STARLINK-32798

NORAD 63029 · 2025-034A

PAYLOAD ACTIVE UNKNOWN

§ Identity

Operator
Country
US
Launch date
2025-02-18
Launch site
AFETR
Launch vehicle
Mass (kg)
RCS (m²)

Purposes: comms

External: N2YO · Heavens-Above · Gunter

§ Orbital elements

Epoch: 2026-05-24T21:02:33.188064Z

Period
94.10 min
Inclination
53.1588°
Eccentricity
0.0001119
Mean motion
15.30208025 rev/d
Perigee alt
474.4 km
Apogee alt
476.0 km
Semi-major
6,853.3 km
B*
3.9079e-4
RAAN
276.8711°
Arg perigee
89.2281°
Mean anomaly
270.8848°
Rev number
7,057

§ Raw data

STARLINK-327981 63029U 25034A   26144.87677301  .00011235  00000+0  39079-3 0  99922 63029  53.1588 276.8711 0001119  89.2281 270.8848 15.30208025 70578

JSON: /api/v1/satellites/63029 · /tle

For live sub-satellite position, see the globe view (requires WebGL).

§ Visibility from observer

Set your observer location to see the next 7 days of passes ≥ 10°. The values pass through the URL so the page stays shareable.

No JS? Fill the form by hand. The geolocation button needs JavaScript.